San Carlos, CA

6:52 PM PST on February 18, 2018 (GMT -0800)
San Carlos

Weather History for KSQL - October, 2012

Change the Weather History Date:

Sunday, October 21, 2012

  Actual Average Record
Temperature  
Mean Temperature 56 °F -  
Max Temperature 62 °F 72 °F 86 °F (1964)
Min Temperature 50 °F 48 °F 35 °F (1949)
Degree Days  
Heating Degree Days 9    
Growing Degree Days 6 (Base 50)    
Moisture  
Dew Point 43 °F    
Average Humidity 65    
Maximum Humidity 82    
Minimum Humidity 48    
Precipitation  
Precipitation 0.00 in - - ()
Sea Level Pressure  
Sea Level Pressure 29.90 in    
Wind  
Wind Speed 3 mph (WSW)    
Max Wind Speed 16 mph    
Max Gust Speed 17 mph    
Visibility 10 miles    
Events Rain    
Averages and records for this station are not official NWS values.
T = Trace of Precipitation, MM = Missing Value Source: NWS Daily Summary

Daily Weather History Graph

Daily Weather History Graph

Search for Another Location

Airport or City:

Trip Planner

Search our weather history database for the weather conditions in past years. The results will help you decide how hot, cold, wet, or windy it might be!

Date:

Astronomy

Oct. 21, 2012 Rise Set
Actual Time 7:23 AM PDT 6:23 PM PDT
Civil Twilight 6:56 AM PDT 6:49 PM PDT
Nautical Twilight 6:26 AM PDT 7:20 PM PDT
Astronomical Twilight 5:56 AM PDT 7:50 PM PDT
Moon 1:45 PM PDT (10/21) No Moon Set
Length of Visible Light 11h 52m
Length of Day
10h 59m
Waxing Crescent, 46% of the Moon is Illuminated
Oct 21
Waxing Crescent
Oct 21
First Quarter
Oct 29
Full
Nov 6
Last Quarter
Nov 13
New

Hourly Weather History & Observations

Time (PDT) Temp. Dew Point Humidity Pressure Visibility Wind Dir Wind Speed Gust Speed Precip Events Conditions
12:10 AM 53.6 °F 44.6 °F 72% 29.88 in 10.0 mi Calm Calm - N/A   Clear
12:35 AM 51.8 °F 44.6 °F 76% 29.89 in 10.0 mi Calm Calm - N/A   Clear
12:55 AM 55.4 °F 44.6 °F 67% 29.88 in 10.0 mi Calm Calm - N/A   Clear
1:10 AM 53.6 °F 44.6 °F 72% 29.88 in 10.0 mi Calm Calm - N/A   Clear
1:35 AM 53.6 °F 44.6 °F 72% 29.88 in 10.0 mi Calm Calm - N/A   Clear
1:50 AM 50.0 °F 44.6 °F 82% 29.88 in 10.0 mi South 3.5 mph - N/A   Clear
2:10 AM 50.0 °F 44.6 °F 82% 29.88 in 10.0 mi Calm Calm - N/A   Clear
2:35 AM 50.0 °F 44.6 °F 82% 29.88 in 10.0 mi Calm Calm - N/A   Clear
2:50 AM 53.6 °F 41.0 °F 62% 29.89 in 10.0 mi Calm Calm - N/A   Clear
3:10 AM 53.6 °F 42.8 °F 67% 29.88 in 10.0 mi WNW 6.9 mph - N/A   Clear
3:35 AM 53.6 °F 42.8 °F 67% 29.89 in 10.0 mi West 10.4 mph - N/A   Clear
3:50 AM 53.6 °F 42.8 °F 67% 29.88 in 10.0 mi WNW 4.6 mph - N/A   Clear
4:15 AM 53.6 °F 41.0 °F 62% 29.87 in 10.0 mi West 4.6 mph - N/A   Clear
4:30 AM 50.0 °F 41.0 °F 71% 29.88 in 10.0 mi Calm Calm - N/A   Clear
4:50 AM 51.8 °F 41.0 °F 67% 29.88 in 10.0 mi Calm Calm - N/A   Clear
5:15 AM 50.0 °F 41.0 °F 71% 29.89 in 10.0 mi SE 3.5 mph - N/A   Clear
5:30 AM 50.0 °F 41.0 °F 71% 29.88 in 10.0 mi SSE 8.1 mph - N/A   Clear
5:55 AM 50.0 °F 41.0 °F 71% 29.90 in 10.0 mi Calm Calm - N/A   Clear
6:15 AM 51.8 °F 41.0 °F 67% 29.90 in 10.0 mi Calm Calm - N/A   Clear
6:30 AM 51.8 °F 41.0 °F 67% 29.91 in 10.0 mi Calm Calm - N/A   Clear
6:55 AM 50.0 °F 41.0 °F 71% 29.91 in 10.0 mi Calm Calm - N/A   Clear
7:48 AM 53.6 °F 41.0 °F 62% 29.92 in 10.0 mi Calm Calm - N/A   Mostly Cloudy
8:55 AM 55.4 °F 42.8 °F 63% 29.94 in 10.0 mi Calm Calm - N/A   Mostly Cloudy
9:52 AM 57.2 °F 44.6 °F 63% 29.96 in 10.0 mi WSW 6.9 mph - N/A   Mostly Cloudy
10:51 AM 59.0 °F 42.8 °F 55% 29.96 in 10.0 mi West 10.4 mph - N/A   Mostly Cloudy
11:47 AM 59.0 °F 41.0 °F 51% 29.96 in 10.0 mi West 8.1 mph - N/A   Mostly Cloudy
12:47 PM 62.6 °F 42.8 °F 48% 29.95 in 10.0 mi WSW 13.8 mph 17.3 mph N/A   Mostly Cloudy
1:47 PM 62.6 °F 44.6 °F 52% 29.93 in 10.0 mi WSW 16.1 mph - N/A   Mostly Cloudy
2:47 PM 60.8 °F 42.8 °F 52% 29.91 in 10.0 mi WSW 16.1 mph - N/A   Mostly Cloudy
3:47 PM 60.8 °F 44.6 °F 55% 29.92 in 10.0 mi WSW 12.7 mph - N/A   Mostly Cloudy
4:47 PM 60.8 °F 44.6 °F 55% 29.91 in 10.0 mi WSW 12.7 mph 16.1 mph N/A   Mostly Cloudy
5:49 PM 59.0 °F 44.6 °F 59% 29.91 in 10.0 mi WSW 12.7 mph - N/A   Scattered Clouds
6:49 PM 57.2 °F 44.6 °F 63% 29.90 in 10.0 mi WSW 11.5 mph - N/A   Partly Cloudy
7:47 PM 57.2 °F 44.6 °F 63% 29.90 in 10.0 mi WSW 9.2 mph - N/A   Clear
8:47 PM 57.2 °F 44.6 °F 63% 29.89 in 10.0 mi West 11.5 mph - N/A   Clear
9:35 PM 57.2 °F 41.0 °F 55% 29.88 in 10.0 mi SSE 4.6 mph - N/A   Overcast
9:50 PM 57.2 °F 42.8 °F 59% 29.88 in 10.0 mi SE 3.5 mph - N/A   Overcast
10:15 PM 57.2 °F 41.0 °F 55% 29.87 in 10.0 mi Calm Calm - N/A   Overcast
10:55 PM 57.2 °F 41.0 °F 55% 29.87 in 10.0 mi Calm Calm - N/A Rain Light Rain
11:15 PM 57.2 °F 44.6 °F 63% 29.88 in 10.0 mi West 3.5 mph - N/A Rain Light Rain
11:30 PM 57.2 °F 48.2 °F 72% 29.88 in 10.0 mi Calm Calm - N/A Rain Light Rain
11:55 PM 57.2 °F 48.2 °F 72% 29.87 in 10.0 mi Calm Calm - N/A   Overcast